Wayne, NE

1:54 PM CDT on September 30, 2016 (GMT -0500)
Wayne Municipal

Weather History for KLCG - June, 2013

Change the Weather History Date:

Saturday, June 29, 2013

  Actual Average (KOFK) Record (KOFK)
Temperature  
Mean Temperature 69 °F 74 °F  
Max Temperature 78 °F 85 °F 102 °F (1931)
Min Temperature 61 °F 62 °F 40 °F (1923)
Degree Days  
Heating Degree Days 0 0  
Month to date heating degree days 28  
Since 1 June heating degree days 28  
Since 1 July heating degree days 6641  
Cooling Degree Days 4 9  
Month to date cooling degree days 177  
Year to date cooling degree days 238  
Since 1 June cooling degree days 177  
Growing Degree Days 19 (Base 50)    
Moisture  
Dew Point 56 °F    
Average Humidity 66    
Maximum Humidity 94    
Minimum Humidity 46    
Precipitation  
Precipitation 0.00 in 0.13 in 2.39 in (1997)
Month to date precipitation 4.13  
Year to date precipitation 13.83  
Snow  
Snow 0.00 in 0.00 in - ()
Month to date snowfall 0.0  
Since 1 July snowfall 30.5  
Snow Depth -    
Sea Level Pressure  
Sea Level Pressure 29.96 in    
Wind  
Wind Speed 10 mph (NNW)    
Max Wind Speed 25 mph    
Max Gust Speed 36 mph    
Visibility 10 miles    
Events      
T = Trace of Precipitation, MM = Missing Value Source: NWS Daily Summary

Daily Weather History Graph

Daily Weather History Graph

Search for Another Location

Airport or City:

Trip Planner

Search our weather history database for the weather conditions in past years. The results will help you decide how hot, cold, wet, or windy it might be!

Date:

Astronomy

Jun. 29, 2013 Rise Set
Actual Time 5:54 AM CDT 9:08 PM CDT
Civil Twilight 5:19 AM CDT 9:42 PM CDT
Nautical Twilight 4:35 AM CDT 10:27 PM CDT
Astronomical Twilight 3:41 AM CDT 11:21 PM CDT
Moon 12:30 AM CDT (6/29) 1:15 PM CDT (6/29)
Length of Visible Light 16h 22m
Length of Day
15h 13m
Waning Gibbous, 55% of the Moon is Illuminated
Jun 29
Waning Gibbous
Jun 29
Last Quarter
Jul 8
New
Jul 15
First Quarter
Jul 22
Full

Hourly Weather History & Observations

Time (CDT) Temp. Dew Point Humidity Pressure Visibility Wind Dir Wind Speed Gust Speed Precip Events Conditions
12:15 AM 62.8 °F 54.9 °F 75% 29.96 in 10.0 mi NW 4.6 mph - N/A   Clear
12:35 AM 63.7 °F 54.5 °F 72% 29.96 in 10.0 mi NW 4.6 mph - N/A   Clear
12:55 AM 62.1 °F 54.7 °F 77% 29.95 in 10.0 mi NW 3.5 mph - N/A   Clear
1:15 AM 61.9 °F 54.7 °F 77% 29.95 in 10.0 mi NW 4.6 mph - N/A   Clear
1:35 AM 63.9 °F 54.0 °F 70% 29.94 in 10.0 mi NW 6.9 mph - N/A   Clear
1:55 AM 63.5 °F 54.0 °F 71% 29.94 in 10.0 mi NW 5.8 mph - N/A   Clear
2:15 AM 63.1 °F 54.0 °F 72% 29.94 in 10.0 mi NW 6.9 mph - N/A   Clear
2:35 AM 63.0 °F 54.0 °F 72% 29.94 in 10.0 mi NW 6.9 mph - N/A   Clear
2:55 AM 63.0 °F 54.0 °F 72% 29.95 in 10.0 mi NW 8.1 mph - N/A   Clear
3:15 AM 62.8 °F 54.3 °F 74% 29.95 in 10.0 mi NW 9.2 mph - N/A   Clear
3:35 AM 61.7 °F 54.7 °F 78% 29.94 in 10.0 mi NW 6.9 mph - N/A   Clear
3:55 AM 61.7 °F 55.0 °F 79% 29.95 in 10.0 mi NW 6.9 mph - N/A   Clear
4:15 AM 61.7 °F 55.4 °F 80% 29.95 in 10.0 mi NW 6.9 mph - N/A   Clear
4:35 AM 61.7 °F 55.0 °F 79% 29.96 in 10.0 mi NW 8.1 mph - N/A   Clear
4:55 AM 61.7 °F 55.2 °F 79% 29.96 in 10.0 mi NW 8.1 mph - N/A   Clear
5:15 AM 61.5 °F 55.2 °F 80% 29.96 in 10.0 mi NW 9.2 mph - N/A   Clear
5:35 AM 61.5 °F 55.0 °F 79% 29.96 in 10.0 mi NW 8.1 mph - N/A   Clear
5:55 AM 61.3 °F 55.0 °F 80% 29.96 in 10.0 mi NW 8.1 mph - N/A   Clear
6:15 AM 61.7 °F 54.9 °F 78% 29.96 in 10.0 mi NW 10.4 mph - N/A   Clear
6:35 AM 61.7 °F 55.4 °F 80% 29.96 in 10.0 mi NW 8.1 mph - N/A   Clear
6:55 AM 61.9 °F 56.3 °F 82% 29.96 in 10.0 mi NW 6.9 mph - N/A   Clear
7:15 AM 63.3 °F 56.3 °F 78% 29.97 in 10.0 mi NW 9.2 mph - N/A   Clear
7:35 AM 64.2 °F 56.7 °F 76% 29.97 in 10.0 mi NW 11.5 mph 16.1 mph N/A   Clear
7:55 AM 66.0 °F 57.6 °F 74% 29.97 in 10.0 mi NW 10.4 mph 17.3 mph N/A   Clear
8:15 AM 67.3 °F 57.9 °F 72% 29.97 in 10.0 mi NNW 11.5 mph 17.3 mph N/A   Clear
8:35 AM 68.4 °F 57.9 °F 69% 29.97 in 10.0 mi NNW 15.0 mph 24.2 mph N/A   Clear
8:55 AM 69.3 °F 57.7 °F 67% 29.97 in 10.0 mi NNW 18.4 mph 26.5 mph N/A   Clear
9:15 AM 69.8 °F 56.8 °F 63% 29.97 in 10.0 mi North 19.6 mph 27.6 mph N/A   Clear
9:35 AM 70.7 °F 57.2 °F 62% 29.97 in 10.0 mi NNW 18.4 mph 28.8 mph N/A   Clear
9:55 AM 71.6 °F 57.2 °F 60% 29.97 in 10.0 mi NNW 19.6 mph 32.2 mph N/A   Clear
10:15 AM 72.0 °F 54.0 °F 53% 29.96 in 10.0 mi North 25.3 mph 35.7 mph N/A   Clear
10:35 AM 72.3 °F 54.5 °F 53% 29.97 in 10.0 mi NNW 21.9 mph 34.5 mph N/A   Clear
10:55 AM 73.4 °F 54.3 °F 51% 29.96 in 10.0 mi North 23.0 mph 34.5 mph N/A   Clear
11:15 AM 73.6 °F 54.9 °F 52% 29.97 in 10.0 mi North 23.0 mph 34.5 mph N/A   Clear
11:35 AM 74.7 °F 54.9 °F 50% 29.97 in 10.0 mi North 23.0 mph 34.5 mph N/A   Clear
11:55 AM 75.0 °F 54.9 °F 49% 29.96 in 10.0 mi NNW 24.2 mph 31.1 mph N/A   Scattered Clouds
12:15 PM 75.4 °F 54.1 °F 48% 29.97 in 10.0 mi North 25.3 mph 33.4 mph N/A   Scattered Clouds
12:35 PM 75.9 °F 55.4 °F 49% 29.97 in 10.0 mi North 21.9 mph 28.8 mph N/A   Scattered Clouds
12:55 PM 75.0 °F 55.0 °F 50% 29.97 in 10.0 mi North 20.7 mph 31.1 mph N/A   Mostly Cloudy
1:15 PM 77.0 °F 55.9 °F 48% 29.97 in 10.0 mi North 21.9 mph 28.8 mph N/A   Scattered Clouds
1:35 PM 76.5 °F 54.7 °F 47% 29.97 in 10.0 mi North 20.7 mph 28.8 mph N/A   Scattered Clouds
1:55 PM 77.7 °F 55.2 °F 46% 29.96 in 10.0 mi North 19.6 mph 27.6 mph N/A   Scattered Clouds
2:15 PM 76.8 °F 55.8 °F 48% 29.96 in 10.0 mi North 17.3 mph 24.2 mph N/A   Scattered Clouds
2:35 PM 76.8 °F 55.0 °F 47% 29.96 in 10.0 mi North 17.3 mph 26.5 mph N/A   Mostly Cloudy
2:55 PM 76.5 °F 55.2 °F 48% 29.96 in 10.0 mi North 18.4 mph 26.5 mph N/A   Mostly Cloudy
3:15 PM 75.7 °F 54.5 °F 48% 29.96 in 10.0 mi North 19.6 mph 26.5 mph N/A   Overcast
3:35 PM 74.7 °F 54.3 °F 49% 29.96 in 10.0 mi North 16.1 mph 23.0 mph N/A   Overcast
3:55 PM 76.5 °F 54.9 °F 47% 29.96 in 10.0 mi North 12.7 mph 24.2 mph N/A   Mostly Cloudy
4:15 PM 76.6 °F 54.7 °F 46% 29.96 in 10.0 mi North 12.7 mph 19.6 mph N/A   Mostly Cloudy
4:35 PM 73.4 °F 56.7 °F 56% 29.96 in 10.0 mi NW 18.4 mph 26.5 mph N/A   Mostly Cloudy
4:55 PM 73.2 °F 56.8 °F 56% 29.96 in 10.0 mi NNW 10.4 mph - N/A   Overcast
5:15 PM 72.5 °F 57.7 °F 60% 29.96 in 10.0 mi NNW 12.7 mph - N/A   Overcast
5:35 PM 75.7 °F 56.3 °F 51% 29.96 in 10.0 mi NNW 12.7 mph - N/A   Scattered Clouds
5:55 PM 74.5 °F 56.5 °F 53% 29.95 in 10.0 mi NNW 12.7 mph - N/A   Mostly Cloudy
6:15 PM 76.3 °F 54.9 °F 47% 29.95 in 10.0 mi NNE 16.1 mph 19.6 mph N/A   Mostly Cloudy
6:35 PM 76.1 °F 54.0 °F 46% 29.95 in 10.0 mi North 11.5 mph 18.4 mph N/A   Scattered Clouds
6:55 PM 74.7 °F 54.0 °F 48% 29.96 in 10.0 mi North 9.2 mph 16.1 mph N/A   Scattered Clouds
7:15 PM 74.3 °F 54.7 °F 50% 29.96 in 10.0 mi North 8.1 mph - N/A   Overcast
7:35 PM 72.7 °F 57.4 °F 59% 29.97 in 10.0 mi NNW 17.3 mph - N/A   Overcast
7:55 PM 71.2 °F 57.6 °F 62% 29.97 in 10.0 mi NNW 10.4 mph 16.1 mph N/A   Mostly Cloudy
8:15 PM 70.0 °F 57.6 °F 65% 29.97 in 10.0 mi NNW 8.1 mph - N/A   Scattered Clouds
8:35 PM 68.9 °F 57.6 °F 67% 29.97 in 10.0 mi NNW 6.9 mph - N/A   Scattered Clouds
8:55 PM 68.0 °F 58.3 °F 71% 29.97 in 10.0 mi NNW 5.8 mph - N/A   Clear
9:15 PM 67.1 °F 58.8 °F 75% 29.97 in 10.0 mi NNW 6.9 mph - N/A   Clear
9:35 PM 65.3 °F 59.9 °F 83% 29.97 in 10.0 mi NNW 5.8 mph - N/A   Clear
9:55 PM 64.8 °F 60.1 °F 85% 29.98 in 10.0 mi NNW 5.8 mph - N/A   Clear
10:15 PM 63.5 °F 60.1 °F 89% 29.98 in 10.0 mi NNW 3.5 mph - N/A   Clear
10:35 PM 63.0 °F 60.1 °F 90% 29.99 in 10.0 mi Calm Calm - N/A   Clear
10:55 PM 61.3 °F 59.2 °F 93% 30.00 in 10.0 mi Calm Calm - N/A   Scattered Clouds
11:15 PM 61.3 °F 59.5 °F 94% 30.00 in 10.0 mi Calm Calm - N/A   Scattered Clouds
11:35 PM 62.8 °F 59.4 °F 89% 30.00 in 10.0 mi Calm Calm - N/A   Mostly Cloudy
11:55 PM 62.1 °F 58.8 °F 89% 30.01 in 10.0 mi Calm Calm - N/A   Scattered Clouds